Location: Fort Worth, Tx
(32.7431°N, 97.3695°W)
Time: 13:42:05
(UTC-05:00)

Courier 1B - All Passes

Search period start: 22 February 2024 00:00
Search period end: 03 March 2024 00:00
Orbit: 962 x 1209 km, 28.3° (Epoch: 22 February)

Date Brightness Start Highest point End Pass type
(mag) Time Alt. Az. Time Alt. Az. Time Alt. Az.
22 Feb - 01:29:08 10° SSW 01:34:27 27° SSE 01:39:48 10° ESE night (unlit)
22 Feb - 03:21:42 10° WSW 03:27:57 52° S 03:34:25 10° E visible
22 Feb - 05:15:17 10° W 05:21:45 59° S 05:28:33 10° ESE visible
22 Feb - 07:09:17 10° W 07:15:31 39° SSW 07:22:06 10° SE visible
22 Feb - 09:04:49 10° WSW 09:09:06 17° SSW 09:13:31 10° S daylight
23 Feb - 00:36:07 10° SSW 00:40:50 21° SSE 00:45:32 10° ESE night (unlit)
23 Feb - 02:28:07 10° WSW 02:34:15 46° SSE 02:40:29 10° E night (unlit)
23 Feb - 04:21:35 10° WSW 04:27:58 60° S 04:34:38 10° ESE visible
23 Feb - 06:15:28 10° W 06:21:45 45° SSW 06:28:24 10° SE visible
23 Feb - 08:10:18 10° WSW 08:15:22 22° SSW 08:20:38 10° SSE daylight
23 Feb - 23:43:26 10° S 23:47:14 16° SSE 23:50:59 10° ESE night (unlit)
24 Feb - 01:34:37 10° SW 01:40:35 39° SSE 01:46:33 10° E night (unlit)
24 Feb - 03:27:54 10° WSW 03:34:13 59° S 03:40:45 10° E visible
24 Feb - 05:21:42 10° W 05:28:01 51° S 05:34:38 10° ESE visible
24 Feb - 07:16:07 10° WSW 07:21:38 27° SSW 07:27:25 10° SSE visible
24 Feb - 22:51:33 10° SSE 22:53:37 11° SSE 22:55:39 10° SE night (unlit)
25 Feb - 00:41:13 10° SW 00:46:56 32° SSE 00:52:35 10° E night (unlit)
25 Feb - 02:34:13 10° WSW 02:40:30 56° S 02:46:53 10° E night (unlit)
25 Feb - 04:27:58 10° W 04:34:16 56° S 04:40:49 10° ESE visible
25 Feb - 06:22:08 10° W 06:27:56 33° SSW 06:33:59 10° SE visible
25 Feb - 08:18:49 10° SW 08:21:23 12° SSW 08:24:00 10° S daylight
25 Feb - 23:47:55 10° SSW 23:53:17 26° SSE 23:58:32 10° ESE night (unlit)
26 Feb - 01:40:32 10° WSW 01:46:48 51° S 01:53:02 10° E night (unlit)
26 Feb - 03:34:13 10° W 03:40:32 59° S 03:47:00 10° ESE visible
26 Feb - 05:28:14 10° W 05:34:13 39° SSW 05:40:27 10° SE visible
26 Feb - 07:23:40 10° WSW 07:27:41 17° SSW 07:31:50 10° S visible
26 Feb - 22:54:50 10° SSW 22:59:39 21° SSE 23:04:20 10° ESE visible
27 Feb - 00:46:53 10° WSW 00:53:06 45° SSE 00:59:12 10° E night (unlit)
27 Feb - 02:40:27 10° WSW 02:46:49 60° S 02:53:13 10° ESE night (unlit)
27 Feb - 04:34:24 10° W 04:40:32 45° SSW 04:46:50 10° ESE visible
27 Feb - 06:29:13 10° WSW 06:34:01 21° SSW 06:39:00 10° SSE visible
27 Feb - 22:02:04 10° S 22:05:59 16° SSE 22:09:48 10° ESE visible
27 Feb - 23:53:18 10° SW 23:59:25 38° SSE 00:05:21 10° E night (unlit)
28 Feb - 01:46:41 10° WSW 01:53:05 59° S 01:59:25 10° E night (unlit)
28 Feb - 03:40:36 10° W 03:46:50 51° S 03:53:09 10° ESE visible
28 Feb - 05:35:02 10° WSW 05:40:22 27° SSW 05:45:51 10° SSE visible
28 Feb - 21:10:06 10° S 21:12:19 12° SSE 21:14:29 10° SE visible
28 Feb - 22:59:48 10° SW 23:05:44 32° SSE 23:11:27 10° E visible
29 Feb - 00:52:54 10° WSW 00:59:22 55° S 01:05:39 10° E night (unlit)
29 Feb - 02:46:47 10° W 02:53:07 56° S 02:59:27 10° ESE night (unlit)
29 Feb - 04:41:02 10° W 04:46:42 33° SSW 04:52:31 10° SE visible
29 Feb - 06:37:42 10° SW 06:40:04 12° SSW 06:42:27 10° S visible
29 Feb - 22:06:26 10° SSW 22:12:03 26° SSE 22:17:26 10° ESE visible
29 Feb - 23:59:08 10° WSW 00:05:38 50° S 00:11:53 10° E night (unlit)
01 Mar - 01:52:57 10° W 01:59:24 59° S 02:05:44 10° ESE night (unlit)
01 Mar - 03:47:06 10° W 03:53:03 40° SSW 03:59:04 10° SE night (unlit)
01 Mar - 05:42:33 10° WSW 05:46:26 16° SSW 05:50:23 10° S visible
01 Mar - 21:13:16 10° SSW 21:18:21 21° SSE 21:23:14 10° ESE visible
01 Mar - 23:05:23 10° SW 23:11:54 44° SSE 23:18:07 10° E visible
02 Mar - 00:59:06 10° WSW 01:05:39 60° S 01:12:01 10° E night (unlit)
02 Mar - 02:53:11 10° W 02:59:23 46° SSW 03:05:31 10° ESE night (unlit)
02 Mar - 04:48:03 10° WSW 04:52:48 22° SSW 04:57:37 10° SSE visible
02 Mar - 20:20:26 10° S 20:24:38 16° SSE 20:28:41 10° ESE visible
02 Mar - 22:11:43 10° SW 22:18:10 38° SSE 22:24:17 10° E visible
